Location: UBC Liquid-Mirror Observatory
(49.2876°N, 122.5728°W)
Time: 10:05:59
(UTC-08:00)

KITSAT 1 - Visible Passes

Search period start: 01 March 2017 00:00
Search period end: 11 March 2017 00:00
Orbit: 1313 x 1317 km, 66.1° (Epoch: 27 February)

Date Brightness Start Highest point End Pass type
(mag) Time Alt. Az. Time Alt. Az. Time Alt. Az.
01 Mar 11.0 03:11:34 38° SE 03:13:20 42° ESE 03:20:47 10° NE visible
01 Mar 10.3 05:03:33 25° WSW 05:08:31 61° NW 05:16:33 10° NE visible
02 Mar 12.3 01:35:31 13° E 01:35:31 13° E 01:38:41 10° ENE visible
02 Mar 10.5 03:27:30 50° SSE 03:29:10 59° ESE 03:37:04 10° NE visible
02 Mar 10.6 05:19:30 21° WSW 05:24:51 48° NW 05:32:40 10° NE visible
03 Mar 11.9 01:51:24 20° E 01:51:24 20° E 01:56:24 10° ENE visible
03 Mar 10.2 03:43:23 59° SSW 03:45:09 79° ESE 03:53:15 10° NE visible
03 Mar 10.9 05:35:23 16° W 05:41:19 39° NNW 05:48:48 10° NE visible
04 Mar 11.5 02:07:13 29° E 02:07:13 29° E 02:13:14 10° NE visible
04 Mar 10.1 03:59:12 55° SW 04:01:14 80° NW 04:09:23 10° NE visible
04 Mar 11.1 05:51:11 11° W 05:57:54 32° NNW 06:05:03 10° NE visible
05 Mar 11.0 02:22:58 41° E 02:22:58 41° E 02:29:42 10° NE visible
05 Mar 10.3 04:14:57 45° WSW 04:17:26 62° NW 04:25:30 10° NE visible
05 Mar 11.3 06:07:48 10° WNW 06:14:34 28° NNW 06:21:22 10° NE visible
06 Mar 12.4 00:46:43 11° E 00:46:43 11° E 00:47:24 10° ENE visible
06 Mar 10.6 02:38:41 56° ESE 02:38:41 56° ESE 02:46:00 10° NE visible
06 Mar 10.6 04:30:40 34° W 04:33:46 49° NW 04:41:36 10° NE visible
07 Mar 12.1 01:02:23 17° E 01:02:23 17° E 01:05:16 10° ENE visible
07 Mar 10.2 02:54:21 76° ESE 02:54:21 76° ESE 03:02:12 10° NE visible
07 Mar 10.9 04:46:20 26° W 04:50:14 39° NNW 04:57:45 10° NE visible
08 Mar 11.8 01:18:01 24° E 01:18:01 24° E 01:22:08 10° NE visible
08 Mar 10.0 03:09:59 81° WNW 03:10:10 81° NW 03:18:20 10° NE visible
08 Mar 11.2 05:01:57 19° WNW 05:06:47 33° NNW 05:13:58 10° NE visible
09 Mar 11.4 01:33:37 33° ENE 01:33:37 33° ENE 01:38:38 10° NE visible
09 Mar 10.2 03:25:35 60° WNW 03:26:23 63° NW 03:34:26 10° NE visible
09 Mar 11.4 05:17:33 13° WNW 05:23:28 28° NNW 05:30:17 10° NE visible
10 Mar 11.0 01:49:11 45° ENE 01:49:11 45° ENE 01:54:56 10° NE visible
10 Mar 10.5 03:41:09 45° WNW 03:42:42 49° NW 03:50:33 10° NE visible
10 Mar 11.6 05:33:41 10° WNW 05:40:12 26° NNW 05:46:44 10° NE visible
